Location: *
(45.5667°S, 177.5167°W)
Time: 23:22:21
(UTC+00:00)

Cosmos 1151 Rocket - Pass Details

Date: 29 May 2022
Orbit: 592 x 615 km, 82.5° (Epoch: 24 June)

Event Time Altitude Azimuth Distance (km) Brightness Sun altitude
Rises 06:48:20 0° 195° (SSW) 2,927 6.6 -25.7°
Reaches altitude 10° 06:50:39 10° 201° (SSW) 2,011 5.8 -26.1°
Maximum altitude 06:54:53 44° 272° (W) 859 4.1 -26.9°
Drops below altitude 10° 06:59:03 10° 344° (NNW) 1,971 5.8 -27.6°
Sets 07:01:18 0° 351° (N) 2,863 6.6 -28.0°
